Aeroporto :
LOGIN :

Iscrizione | Disclaimer

   EN    FR    IT 

 










Sommario :    VFR   VFR Marginale   IFR   IFR Intensivo   IFR Molto Intensivo
Visibilità : 
Base nubi : 
>= 8 km
>= 3000ft
5 / 8 km
1000 / 3000 ft
1500m / 5 km
500 / 1000 ft
800 / 1500m
200 / 500 ft
< 800m
< 200 ft
Simboli :   Temporali  Nebbia  Neve Forte  Precipitazioni Forti  Vento > 20 kt
SIGMETs :   Varie  Temporali  Ghiacco  Turbolenza  Onda orograficha  Ceneri Vulcaniche






- Altitudine del aeroporto : 325 ft
- Codice IATA : POX


LFPT - Pontoise

ULTIMO METAR :
  • 281030Z AUTO 24008KT CAVOK 10/08 Q1012

METARs OBSOLETI :
  • 281000Z AUTO 23005KT CAVOK 09/08 Q1011
  • 280930Z AUTO 25004KT 9999 BKN008 08/08 Q1012
  • 280900Z AUTO 23006KT CAVOK 08/07 Q1011
  • 280830Z AUTO 24004KT CAVOK 08/08 Q1011
  • 280800Z AUTO 26005KT CAVOK 08/07 Q1011
  • 280730Z AUTO 25004KT CAVOK 08/07 Q1011

TAF N/A
ATIS : +33 1 30 30 52 08



MetMap, La meteo Aeronautica in un colpo d'occhio ! - Copyright ORBIFLY Dicembre 2007 - Disclaimer

ORBIFLY MET'MAP TEAM :

Programmazione e sviluppo : Alexandra Zaïnal
Concezione : Baudouin d'Aumeries
Supporto tecnico e logistico : Manuel Goepfert
Aiuto : Marc-Olivier Méhu
Aiuto per la traduzione : Arnaldo La Scala




FONTI E CREDITI :

   NOAA